CAPE
0 0 0 0 0 0 0 0 0 0 0 0 0 0 0 0 0 0 0 0 0 0 0 0 0 0 0 0 0 0 0 0 1 0 0 0 0 0 0 0 0 0 0
0 0 0 0 0 0 0 0 0 0 0 0 0 0 0 0 0 0 0 0 0 0 0 0 0 0 0 0 0 0 0 0 0 0 0 0 0 0 0 0 0 0 0
0 0 0 0 0 0 0 0 0 0 0 0 0 0 0 0 0 0 0 0 0 0 0 0 0 0 0 0 0 0 0 0 0 0 0 0 0 0 0 0 0 0 0
0 0 0 0 0 0 0 0 0 0 0 0 0 0 0 0 0 0 0 0 0 0 0 0 0 0 0 0 0 0 0 0 0 0 0 0 0 0 0 0 0 0 0
0 0 0 0 0 0 0 0 0 0 0 0 0 0 0 0 0 0 0 0 0 0 0 0 0 0 0 0 0 0 0 0 0 1 1 0 0 0 2 3 4 0 0
0 0 0 0 0 0 0 0 0 0 0 0 0 0 0 0 0 0 0 0 0 0 0 0 0 0 0 0 1 5 1 0 1 1 2 1 2 7 4 7 8 2 1
0 0 0 0 0 0 0 0 0 0 0 0 0 0 0 0 0 0 0 0 0 0 0 0 0 0 0 0 0 3 0 1 1 0 1 6 8 2 6 9 5 6 5
0 0 0 0 0 0 0 0 0 0 0 0 0 0 0 0 0 0 0 0 0 0 0 0 0 0 0 0 1 0 0 0 0 0 2 1 0 3 10 11 9 4 0
0 0 0 0 0 0 0 0 0 0 0 0 0 0 0 0 0 0 0 0 0 0 0 0 0 0 0 8 0 0 0 0 0 7 7 3 6 8 8 4 0 1 0
0 0 0 0 0 0 0 0 0 0 0 0 0 0 0 0 0 0 0 0 0 0 0 0 0 0 5 9 0 0 0 0 2 0 0 0 0 0 3 3 4 0 0
0 0 0 0 0 0 0 0 0 0 0 0 0 0 0 0 0 0 0 0 0 0 0 0 0 4 8 6 5 0 0 4 0 0 0 0 0 0 0 0 4 9 1
0 0 0 0 0 0 0 0 0 0 0 0 0 0 0 0 0 0 0 0 1 0 1 0 0 9 9 4 1 2 7 2 0 0 0 0 0 0 0 0 0 0 3
0 0 0 0 0 0 0 0 0 0 0 0 0 0 0 0 0 0 0 1 2 0 0 1 6 3 0 0 0 3 1 0 0 0 0 0 0 0 0 0 0 0 0
0 0 0 0 0 0 0 0 0 0 0 0 0 0 0 0 0 0 0 0 0 0 0 0 0 0 0 0 0 0 0 0 0 0 0 0 0 0 0 0 0 0 0
0 0 0 0 0 0 0 0 0 0 0 0 0 0 0 0 0 0 1 0 0 1 0 0 0 0 0 0 0 0 0 0 0 0 0 0 0 0 0 0 0 0 0
0 0 0 0 0 0 0 0 0 0 0 0 0 0 0 0 1 2 3 4 8 7 0 0 0 0 0 0 0 0 0 0 0 0 0 0 0 0 0 0 0 0 0
0 0 0 0 0 0 0 0 0 0 0 0 0 0 0 0 1 2 5 9 0 0 0 0 0 0 0 0 0 0 0 0 0 0 0 0 0 0 0 0 0 0 0
0 0 0 0 0 0 0 0 0 0 0 0 0 0 0 0 0 2 6 0 0 0 0 0 0 0 0 0 0 0 0 0 0 0 0 0 0 0 0 0 0 0 0
0 0 0 0 0 0 0 0 0 0 0 0 0 0 0 0 0 3 2 0 0 0 0 0 0 0 0 0 0 0 0 0 0 0 0 0 0 0 0 0 0 0 0
0 0 0 0 0 0 0 0 0 0 0 0 0 0 0 0 0 0 0 0 0 0 0 0 0 0 0 0 0 0 0 0 0 0 0 0 0 0 0 0 0 0 0
0 0 0 0 0 0 0 0 0 0 0 0 0 0 2 0 0 0 0 0 0 0 0 0 0 0 0 0 0 0 0 0 0 0 0 0 0 0 0 0 0 0 0
0 0 0 0 0 0 0 0 0 0 0 0 0 0 1 0 0 0 0 0 0 0 0 0 0 0 0 0 0 0 0 0 0 0 0 0 0 0 0 0 0 0 0
0 0 0 0 0 0 0 0 0 0 0 0 0 0 0 0 0 0 0 0 0 0 0 0 0 0 0 0 0 0 0 0 0 0 0 0 0 0 0 0 0 0 0
0 0 0 0 0 0 0 0 0 0 0 0 0 0 0 0 0 0 0 0 0 0 0 0 0 0 0 0 0 0 0 0 0 0 0 0 0 0 0 0 0 0 0
0 0 0 0 0 0 0 0 0 0 0 0 0 0 0 0 0 0 0 0 0 0 0 0 0 0 0 0 0 0 0 0 0 0 0 0 0 0 0 0 0 0 0
0 0 0 0 0 0 0 0 0 0 0 0 0 0 0 0 0 0 0 0 0 0 0 0 0 0 0 0 0 0 0 8 1 0 0 0 0 0 0 0 0 0 0
CIN
-0 -0 -0 -0 -0 -0 -0 -0 -0 -0 -0 -0 -0 -0 -0 -0 -0 -0 -0 -0 -0 -0 -0 -0 -0 -0 -0 -0 -0 -0 -0 -0 -0 -0 -0 -0 -0 -0 -0 -0 -0 -0 -0
-0 -0 -0 -0 -0 -0 -0 -0 -0 -0 -0 -0 -0 -0 -0 -0 -0 -0 -0 -0 -0 -0 -0 -0 -0 -0 -0 -0 -0 -0 -0 -0 -0 -0 -0 -0 -0 -0 -0 -0 -0 -0 -0
-0 -0 -0 -0 -0 -0 -0 -0 -0 -0 -0 -0 -0 -0 -0 -0 -0 -0 -0 -0 -0 -0 -0 -0 -0 -0 -0 -0 -0 -0 -0 -0 -0 -0 -0 -0 -0 -0 -0 -0 -0 -0 -0
-0 -0 -0 -0 -0 -0 -0 -0 -0 -0 -0 -0 -0 -0 -0 -0 -0 -0 -0 -0 -0 -0 -0 -0 -0 -0 -0 -0 -0 -0 -0 -0 -0 -0 -0 -0 -0 -0 -0 -0 -0 -0 -0
-0 -0 -0 -0 -0 -0 -0 -0 -0 -0 -0 -0 -0 -0 -0 -0 -0 -0 -0 -0 -0 -0 -0 -0 -0 -0 -0 -0 -0 -0 -0 -0 -0 -0 -0 -0 -0 -0 -0 -0 -0 -0 -0
-0 -0 -0 -0 -0 -0 -0 -0 -0 -0 -0 -0 -0 -0 -0 -0 -0 -0 -0 -0 -0 -0 -0 -0 -0 -0 -0 -0 -0 -0 -1 -0 -0 -0 -0 -0 -0 -0 -0 -0 -0 -0 -0
-0 -0 -0 -0 -0 -0 -0 -0 -0 -0 -0 -0 -0 -0 -0 -0 -0 -0 -0 -0 -0 -0 -0 -0 -0 -0 -0 -0 -0 -0 -0 -0 -0 -0 -0 -0 -0 -0 -0 -0 -0 -0 -0
-0 -0 -0 -0 -0 -0 -0 -0 -0 -0 -0 -0 -0 -0 -0 -0 -0 -0 -0 -0 -0 -0 -0 -0 -0 -0 -0 -0 -1 -0 -0 -0 -0 -0 -0 -0 -0 -0 -0 -0 -0 -0 -0
-0 -0 -0 -0 -0 -0 -0 -0 -0 -0 -0 -0 -0 -0 -0 -0 -0 -0 -0 -0 -0 -0 -0 -0 -0 -0 -0 -0 -0 -0 -0 -0 -0 -0 -0 -0 -0 -0 -0 -0 -0 -1 -0
-0 -0 -0 -0 -0 -0 -0 -0 -0 -0 -0 -0 -0 -0 -0 -0 -0 -0 -0 -0 -0 -0 -0 -0 -0 -0 -0 -0 -1 -0 -0 -0 -0 -0 -0 -0 -0 -0 -0 -0 -0 -1 -0
-0 -0 -0 -0 -0 -0 -0 -0 -0 -0 -0 -0 -0 -0 -0 -0 -0 -0 -0 -0 -0 -0 -0 -0 -0 -0 -0 -0 -0 -0 -0 -0 -0 -0 -0 -0 -0 -0 -0 -0 -0 -0 -0
-0 -0 -0 -0 -0 -0 -0 -0 -0 -0 -0 -0 -0 -0 -0 -0 -0 -0 -0 -0 -0 -0 -0 -0 -0 -0 -0 -0 -0 -0 -0 -0 -0 -0 -0 -0 -0 -0 -0 -0 -0 -0 -0
-0 -0 -0 -0 -0 -0 -0 -0 -0 -0 -0 -0 -0 -0 -0 -0 -0 -0 -0 -0 -0 -0 -0 -1 -0 -0 -0 -0 -0 -0 -0 -0 -0 -0 -0 -0 -0 -0 -0 -0 -0 -0 -0
-0 -0 -0 -0 -0 -0 -0 -0 -0 -0 -0 -0 -0 -0 -0 -0 -0 -0 -0 -0 -0 -0 -0 -0 -0 -0 -0 -0 -0 -0 -0 -0 -0 -0 -0 -0 -0 -0 -0 -0 -0 -0 -0
-0 -0 -0 -0 -0 -0 -0 -0 -0 -0 -0 -0 -0 -0 -0 -0 -0 -0 -0 -0 -0 -1 -0 -0 -0 -0 -0 -0 -0 -0 -0 -0 -0 -0 -0 -0 -0 -0 -0 -0 -0 -0 -0
-0 -0 -0 -0 -0 -0 -0 -0 -0 -0 -0 -0 -0 -0 -0 -0 -0 -0 -0 -0 -0 -0 -0 -0 -0 -0 -0 -0 -0 -0 -0 -0 -0 -1 -0 -0 -0 -0 -0 -0 -0 -0 -0
-0 -0 -0 -0 -0 -0 -0 -0 -0 -0 -0 -0 -0 -0 -0 -0 -0 -0 -0 -0 -0 -0 -0 -0 -0 -0 -0 -0 -0 -0 -0 -0 -0 -0 -0 -0 -0 -0 -0 -0 -0 -0 -0
-0 -0 -0 -0 -0 -0 -0 -0 -0 -0 -0 -0 -0 -0 -0 -0 -0 -0 -0 -0 -0 -0 -0 -0 -0 -0 -0 -0 -0 -0 -0 -0 -0 -0 -0 -0 -0 -0 -0 -0 -0 -0 -0
-0 -0 -0 -0 -0 -0 -0 -0 -0 -0 -0 -0 -0 -0 -0 -0 -0 -0 -0 -0 -0 -0 -0 -0 -0 -0 -0 -0 -0 -0 -0 -0 -0 -0 -0 -0 -0 -0 -0 -0 -0 -0 -0
-0 -0 -0 -0 -0 -0 -0 -0 -0 -0 -0 -0 -0 -0 -0 -0 -0 -0 -0 -0 -0 -0 -0 -0 -0 -0 -0 -0 -0 -0 -0 -0 -0 -0 -0 -0 -0 -0 -0 -0 -0 -0 -0
-0 -0 -0 -0 -0 -0 -0 -0 -0 -0 -0 -0 -0 -0 -0 -0 -0 -0 -0 -0 -0 -0 -0 -0 -0 -0 -0 -0 -0 -0 -0 -0 -0 -0 -0 -0 -0 -0 -0 -0 -0 -0 -0
-0 -0 -0 -0 -0 -0 -0 -0 -0 -0 -0 -0 -0 -0 -0 -0 -0 -0 -0 -0 -0 -0 -0 -0 -0 -0 -0 -0 -0 -0 -0 -0 -0 -0 -0 -0 -0 -0 -0 -0 -0 -0 -0
-0 -0 -0 -0 -0 -0 -0 -0 -0 -0 -0 -0 -0 -0 -0 -0 -0 -0 -0 -0 -0 -0 -0 -0 -0 -0 -0 -0 -0 -0 -0 -0 -0 -0 -0 -0 -0 -0 -0 -0 -0 -0 -0
-0 -0 -0 -0 -0 -0 -0 -0 -0 -0 -0 -0 -0 -0 -0 -0 -0 -0 -0 -0 -0 -0 -0 -0 -0 -0 -0 -0 -0 -0 -0 -0 -0 -0 -0 -0 -0 -0 -0 -0 -0 -0 -0
-0 -0 -0 -0 -0 -0 -0 -0 -0 -0 -0 -0 -0 -0 -0 -0 -0 -0 -0 -0 -0 -0 -0 -0 -0 -0 -0 -0 -0 -0 -0 -0 -0 -0 -0 -0 -0 -0 -0 -0 -0 -0 -0
-0 -0 -0 -0 -0 -0 -0 -0 -0 -0 -0 -0 -0 -0 -0 -0 -0 -0 -0 -0 -0 -0 -0 -0 -0 -0 -0 -0 -0 -0 -0 -0 -0 -0 -0 -0 -0 -0 -0 -0 -0 -0 -0
Wind_Speed
8 8 7 6 6 7 7 6 6 6 6 7 6 6 7 7 7 7 6 7 6 6 5 6 7 6 6 6 5 5 7 7 10 12 12 14 17 16 15 13 15 13 12
7 6 6 6 6 7 7 7 6 7 6 5 5 5 8 8 7 8 7 7 6 8 7 7 7 7 7 6 6 8 7 8 10 17 15 14 15 17 16 17 13 12 13
6 6 6 6 6 7 6 5 5 5 5 5 5 6 7 7 7 7 7 7 7 6 6 6 7 8 7 6 7 7 7 8 9 11 14 12 13 13 15 14 14 14 11
6 6 6 5 6 5 5 5 5 5 5 5 5 5 5 5 6 7 7 6 5 5 5 5 7 8 7 9 8 8 10 10 11 11 12 13 13 13 13 16 16 12 15
6 5 6 5 5 4 5 5 5 5 5 5 5 5 4 5 5 6 5 5 5 5 5 6 7 9 15 12 8 9 10 10 10 10 11 12 12 14 16 14 16 17 14
6 6 6 5 5 5 5 5 5 5 4 4 5 5 5 2 8 10 8 6 7 6 5 6 7 5 9 14 16 19 16 13 13 10 11 13 16 15 14 15 15 16 19
6 5 5 5 4 4 4 4 4 3 3 4 5 4 4 3 7 8 10 5 5 5 4 6 8 7 5 9 14 16 14 18 17 15 14 14 17 16 18 19 16 16 18
6 5 5 5 4 4 4 4 3 2 2 2 3 4 3 3 6 7 8 3 3 4 5 5 6 8 6 13 12 12 12 10 12 10 12 14 15 17 15 15 17 18 17
6 6 5 5 5 4 4 3 2 2 2 1 1 2 2 1 5 7 6 4 6 6 6 5 7 7 15 21 13 13 12 11 13 20 22 27 26 25 21 12 12 12 15
6 6 5 4 4 4 3 2 1 0 1 1 2 2 2 0 4 7 7 4 6 6 6 8 11 11 20 23 15 12 11 13 13 12 12 14 16 14 20 11 10 12 13
6 6 5 4 4 4 3 2 2 1 1 1 2 2 3 1 4 8 9 5 6 6 6 6 6 17 22 24 23 10 13 18 13 12 11 10 10 9 9 9 11 11 13
6 6 5 3 2 3 4 1 1 1 1 2 2 3 2 3 7 8 10 11 12 7 8 7 9 19 24 23 18 21 23 16 9 10 10 10 11 12 11 11 14 13 12
5 5 5 4 3 3 2 1 1 1 0 2 1 1 2 2 2 9 12 13 13 9 7 14 19 20 21 15 17 21 14 7 8 9 10 11 11 12 15 14 13 16 15
6 5 4 4 3 2 1 1 1 0 1 1 2 2 3 3 3 4 6 6 9 9 12 3 13 17 17 15 8 9 7 7 9 10 10 11 11 11 12 11 13 14 14
4 4 3 3 3 2 2 2 2 2 3 3 4 3 3 4 3 10 11 6 7 11 7 4 7 8 8 8 7 7 7 8 9 9 9 11 11 11 12 11 12 13 13
5 4 3 3 2 2 2 2 4 6 8 10 10 7 3 10 14 16 16 18 20 19 6 5 7 7 8 8 8 9 8 9 9 9 10 10 11 12 12 12 11 11 13
5 4 3 3 2 2 1 2 2 4 7 7 8 10 11 12 14 14 16 17 15 15 2 4 7 7 8 8 8 8 10 9 11 9 10 10 11 11 13 12 11 11 13
3 3 3 3 3 2 2 2 2 1 2 3 5 9 11 11 13 15 16 11 7 5 2 4 6 6 7 8 8 8 9 9 10 10 11 10 10 11 12 11 11 12 13
4 3 3 2 2 3 2 1 1 2 3 4 3 5 6 13 15 13 13 1 4 5 3 3 4 4 7 7 8 8 9 9 10 10 10 9 9 10 11 11 12 16 16
3 4 4 2 2 2 2 2 3 3 3 3 4 4 3 3 3 2 2 2 2 4 4 4 5 5 6 7 7 8 9 10 10 9 10 10 9 9 10 12 11 12 13
3 3 4 2 2 2 2 3 3 2 3 4 5 4 13 5 3 3 4 4 5 5 5 3 5 6 6 6 7 8 9 10 10 10 10 9 9 10 10 10 11 12 12
4 3 3 3 2 3 3 3 3 3 3 5 6 5 13 4 5 5 6 6 5 5 5 5 6 7 7 7 8 9 10 11 10 10 10 10 10 10 10 10 11 11 11
3 4 3 3 3 3 3 2 3 3 5 5 5 5 5 5 6 6 6 5 5 5 5 3 5 8 7 7 7 8 10 11 11 9 11 11 11 10 10 10 10 11 11
4 4 3 3 2 3 3 3 4 6 5 4 4 5 6 6 6 7 6 5 4 5 5 5 5 9 10 9 9 9 10 11 9 10 14 12 12 12 10 10 10 13 12
4 3 3 3 3 2 3 4 4 4 4 4 6 6 7 6 6 5 5 5 5 6 7 6 6 9 11 13 15 17 17 19 15 15 12 15 16 17 13 11 12 11 12
3 3 2 2 2 2 3 4 4 3 5 5 6 7 7 7 7 5 6 5 5 6 8 7 9 12 14 13 16 18 19 19 17 19 14 12 12 12 9 10 12 9 11
Wind_Direction
79 84 93 90 84 81 80 78 79 72 64 65 62 65 63 53 44 49 43 27 37 34 21 31 22 21 17 4 355 358 346 336 313 319 318 322 323 321 323 323 318 315 319
96 94 90 86 83 84 77 67 66 72 65 71 69 66 64 48 38 38 34 20 20 25 19 25 16 12 4 7 356 347 339 333 329 316 316 320 320 322 319 319 322 317 319
107 103 95 88 84 78 76 71 71 79 71 68 66 68 75 59 44 31 30 19 9 14 21 21 10 9 3 1 347 348 344 328 321 314 312 318 315 318 318 317 319 314 311
104 103 98 89 86 87 90 84 81 74 75 68 64 71 89 67 56 40 27 14 4 22 16 27 12 354 6 353 348 353 330 329 322 314 310 315 318 323 318 323 320 321 320
113 113 102 93 90 94 84 83 80 72 75 79 73 61 86 63 44 44 19 4 12 14 2 18 2 345 0 346 346 330 329 329 319 313 314 317 321 323 326 326 314 317 317
127 118 108 110 107 89 77 74 77 81 85 87 74 70 58 66 48 32 29 14 5 354 5 360 345 343 343 338 328 327 331 325 315 318 316 313 314 319 321 316 314 319 316
130 124 122 113 97 97 98 93 89 86 88 83 72 71 59 4 38 28 32 8 1 334 354 340 335 333 320 315 305 325 323 315 319 319 309 310 314 320 315 314 315 308 304
126 125 117 127 132 116 107 100 92 81 80 90 81 69 61 18 14 5 19 17 324 314 322 314 313 309 321 311 320 329 317 317 315 304 302 314 309 309 309 309 308 308 300
146 142 143 152 141 129 125 114 96 76 75 61 88 74 83 40 350 348 11 355 345 324 311 317 306 299 317 324 336 320 318 314 305 309 318 313 310 313 312 313 311 312 307
158 151 146 136 141 136 128 125 128 307 66 35 353 66 329 349 333 341 355 352 315 310 319 316 313 322 320 332 330 326 319 308 314 325 315 306 306 302 314 312 310 301 302
144 136 131 146 150 144 132 171 152 139 28 341 310 322 337 24 339 334 333 340 312 321 316 313 313 312 325 330 328 330 302 317 336 321 306 304 306 308 312 310 304 297 297
140 136 141 143 155 132 140 158 128 205 240 313 337 342 334 0 340 327 331 326 324 328 309 306 294 310 327 325 326 311 318 337 315 307 307 309 314 316 316 311 302 294 281
133 148 166 152 141 147 141 152 120 4 337 318 315 293 289 309 298 324 322 316 326 317 301 301 327 325 328 324 312 319 332 312 307 306 307 308 311 311 310 311 307 304 297
152 167 163 163 168 174 166 166 169 230 291 267 273 269 266 253 260 292 272 268 291 305 298 359 327 334 327 317 315 313 307 306 306 304 304 305 309 311 309 314 315 319 314
163 173 175 171 179 182 189 197 198 216 199 205 226 221 247 283 264 294 312 312 309 306 1 9 342 330 320 316 313 311 309 310 307 304 303 306 306 309 310 315 313 314 312
168 176 177 166 178 182 185 298 293 281 283 271 278 268 227 261 293 305 315 318 320 344 3 339 321 314 310 312 313 314 313 310 309 307 304 303 308 308 308 312 311 311 311
169 168 167 163 164 166 183 179 271 319 317 304 310 304 302 302 302 310 314 315 356 351 344 303 301 305 304 307 309 310 311 311 308 305 304 306 308 308 311 311 311 311 310
163 162 169 174 167 167 175 202 202 228 280 298 322 317 307 309 312 312 311 6 337 336 258 271 283 291 303 307 309 310 309 307 307 306 305 304 306 306 308 308 308 310 310
181 193 174 164 168 169 155 186 224 247 258 272 309 308 308 308 309 312 333 157 284 295 281 271 259 280 302 305 305 303 302 301 301 301 298 300 303 305 303 305 305 307 307
187 179 178 170 177 189 199 228 244 252 270 276 287 277 290 317 295 261 237 238 264 267 271 264 297 294 299 299 300 301 300 297 296 295 296 298 299 298 300 305 303 304 305
151 169 179 178 202 193 207 231 243 241 254 264 273 267 290 302 299 291 295 290 280 279 283 258 291 291 288 287 292 294 291 290 289 290 292 295 299 299 299 298 297 297 299
166 169 172 200 204 221 230 230 228 255 257 271 282 281 308 316 287 282 283 280 271 262 258 266 283 285 285 284 287 289 288 288 290 290 291 296 296 295 294 293 295 295 298
162 169 176 205 215 219 240 236 242 246 261 258 266 286 293 273 274 274 275 272 270 275 274 250 262 284 283 277 270 272 279 281 283 289 290 291 288 285 283 287 290 295 298
164 181 199 207 196 214 227 246 251 254 260 264 267 268 271 274 278 274 274 270 270 276 271 261 257 268 284 283 280 275 271 271 275 279 279 278 280 282 277 278 283 289 289
172 184 186 193 203 222 253 259 264 268 270 263 273 274 277 273 272 263 265 271 273 279 281 275 271 273 274 278 279 280 278 281 276 269 267 263 262 265 264 269 274 279 293
146 155 176 195 233 231 239 262 269 257 272 279 278 278 277 279 277 269 272 266 274 276 282 282 279 272 275 279 278 281 287 291 291 287 277 269 267 267 256 260 274 281 287